Location: The Saddle
(36.8333°N, 80.3417°W)
Time: 20:12:05
(UTC-05:00)

A-11 Canister half - Pass Details

Date: 18 December 2023
Orbit: 1512 x 1687 km, 47.2° (Epoch: 26 February)

Event Time Altitude Azimuth Distance (km) Brightness Sun altitude
Rises 06:14:15 0° 284° (WNW) 4,873 - -14.4°
Exits shadow 06:19:58 - 257° (WSW) 4,027 10.7 -13.4°
Reaches altitude 10° 06:21:45 10° 247° (WSW) 3,920 10.7 -13.0°
Maximum altitude 06:23:05 10° 239° (WSW) 3,898 10.7 -12.8°
Drops below altitude 10° 06:24:25 10° 232° (SW) 3,928 10.8 -12.5°
Sets 06:32:04 0° 195° (SSW) 4,926 11.7 -11.1°
